TimeCDT,TemperatureF,Dew PointF,Humidity,Sea Level PressureIn,VisibilityMPH,Wind Direction,Wind SpeedMPH,Gust SpeedMPH,PrecipitationIn,Events,Conditions,WindDirDegrees,DateUTC
12:15 AM,31.6,24.1,74,30.20,10.0,West,6.9,-,N/A,,Clear,280,2012-10-10 05:15:00
12:35 AM,32.0,24.8,75,30.20,10.0,West,6.9,-,N/A,,Clear,270,2012-10-10 05:35:00
12:55 AM,29.7,23.5,78,30.20,10.0,West,5.8,-,N/A,,Clear,260,2012-10-10 05:55:00
1:15 AM,31.1,24.6,77,30.20,10.0,West,4.6,-,N/A,,Clear,270,2012-10-10 06:15:00
1:35 AM,30.7,24.6,78,30.20,10.0,West,4.6,-,N/A,,Clear,270,2012-10-10 06:35:00
1:55 AM,28.6,23.5,81,30.20,10.0,Calm,Calm,-,N/A,,Clear,0,2012-10-10 06:55:00
2:15 AM,27.9,23.4,83,30.21,10.0,Calm,Calm,-,N/A,,Clear,0,2012-10-10 07:15:00
2:35 AM,27.9,23.7,84,30.21,10.0,Calm,Calm,-,N/A,,Clear,0,2012-10-10 07:35:00
2:55 AM,27.5,23.2,84,30.21,10.0,Calm,Calm,-,N/A,,Clear,0,2012-10-10 07:55:00
3:15 AM,27.5,23.4,84,30.21,10.0,NNW,4.6,-,N/A,,Clear,330,2012-10-10 08:15:00
3:35 AM,28.0,23.7,84,30.21,10.0,Calm,Calm,-,N/A,,Clear,0,2012-10-10 08:35:00
3:55 AM,24.4,20.1,84,30.21,10.0,NW,3.5,-,N/A,,Clear,310,2012-10-10 08:55:00
4:15 AM,24.3,20.3,85,30.21,10.0,NW,3.5,-,N/A,,Clear,310,2012-10-10 09:15:00
4:35 AM,24.4,20.5,85,30.21,10.0,NW,5.8,-,N/A,,Clear,320,2012-10-10 09:35:00
4:55 AM,25.7,21.7,85,30.21,10.0,NW,3.5,-,N/A,,Clear,310,2012-10-10 09:55:00
5:15 AM,24.8,21.2,86,30.21,10.0,NW,4.6,-,N/A,,Clear,310,2012-10-10 10:15:00
5:35 AM,24.1,19.9,84,30.21,10.0,Calm,Calm,-,N/A,,Clear,0,2012-10-10 10:35:00
5:55 AM,25.3,22.3,88,30.21,10.0,Calm,Calm,-,N/A,,Clear,0,2012-10-10 10:55:00
6:15 AM,25.7,22.5,88,30.20,10.0,North,3.5,-,N/A,,Clear,350,2012-10-10 11:15:00
6:35 AM,25.7,22.8,89,30.20,10.0,Calm,Calm,-,N/A,,Clear,0,2012-10-10 11:35:00
6:55 AM,23.7,21.0,89,30.21,10.0,WSW,4.6,-,N/A,,Clear,250,2012-10-10 11:55:00
7:15 AM,23.5,20.7,89,30.21,10.0,West,4.6,-,N/A,,Clear,260,2012-10-10 12:15:00
7:35 AM,24.3,21.4,89,30.21,10.0,WNW,3.5,-,N/A,,Clear,290,2012-10-10 12:35:00
7:55 AM,24.4,21.6,89,30.20,10.0,NW,4.6,-,N/A,,Clear,310,2012-10-10 12:55:00
8:35 AM,27.9,24.6,88,30.20,10.0,Calm,Calm,-,N/A,,Clear,0,2012-10-10 13:35:00
8:55 AM,31.1,26.4,83,30.20,10.0,Calm,Calm,-,N/A,,Clear,0,2012-10-10 13:55:00
9:15 AM,33.8,27.9,79,30.20,10.0,Calm,Calm,-,N/A,,Clear,0,2012-10-10 14:15:00
9:35 AM,38.7,29.7,70,30.21,10.0,SW,3.5,-,N/A,,Clear,220,2012-10-10 14:35:00
9:55 AM,42.1,30.7,64,30.21,10.0,WSW,3.5,-,N/A,,Clear,250,2012-10-10 14:55:00
10:15 AM,45.9,32.0,58,30.21,10.0,WSW,3.5,-,N/A,,Clear,240,2012-10-10 15:15:00
10:35 AM,49.6,33.1,53,30.20,10.0,SW,5.8,-,N/A,,Clear,230,2012-10-10 15:35:00
10:55 AM,52.3,33.4,49,30.20,10.0,SSW,5.8,-,N/A,,Clear,210,2012-10-10 15:55:00
11:15 AM,55.2,32.9,43,30.20,10.0,SW,12.7,16.1,N/A,,Clear,230,2012-10-10 16:15:00
11:55 AM,57.4,33.3,40,30.19,10.0,SW,15.0,20.7,N/A,,Clear,230,2012-10-10 16:55:00
12:15 PM,57.9,32.4,38,30.18,10.0,SW,15.0,20.7,N/A,,Clear,230,2012-10-10 17:15:00
12:35 PM,58.8,32.5,37,30.17,10.0,SW,17.3,21.9,N/A,,Clear,220,2012-10-10 17:35:00
12:55 PM,60.3,32.2,35,30.16,10.0,SW,16.1,20.7,N/A,,Clear,230,2012-10-10 17:55:00
1:15 PM,61.7,32.2,33,30.14,10.0,SW,16.1,23.0,N/A,,Clear,220,2012-10-10 18:15:00
1:35 PM,61.9,32.0,33,30.13,10.0,SW,16.1,23.0,N/A,,Clear,220,2012-10-10 18:35:00
1:55 PM,62.8,32.5,32,30.12,10.0,SSW,12.7,19.6,N/A,,Clear,210,2012-10-10 18:55:00
2:15 PM,63.1,32.0,31,30.10,10.0,SSW,15.0,24.2,N/A,,Clear,210,2012-10-10 19:15:00
2:35 PM,64.8,32.7,30,30.08,10.0,South,13.8,24.2,N/A,,Clear,190,2012-10-10 19:35:00
2:55 PM,65.5,33.1,30,30.07,10.0,SSW,17.3,-,N/A,,Clear,200,2012-10-10 19:55:00
3:15 PM,65.7,33.6,30,30.06,10.0,SW,17.3,23.0,N/A,,Clear,230,2012-10-10 20:15:00
3:35 PM,66.2,33.4,30,30.04,10.0,SW,15.0,21.9,N/A,,Clear,220,2012-10-10 20:35:00
3:55 PM,67.1,34.0,29,30.04,10.0,SW,16.1,24.2,N/A,,Clear,220,2012-10-10 20:55:00
4:15 PM,67.1,33.6,29,30.03,10.0,SSW,15.0,-,N/A,,Clear,200,2012-10-10 21:15:00
4:35 PM,66.9,33.3,29,30.02,10.0,South,18.4,23.0,N/A,,Clear,190,2012-10-10 21:35:00
4:55 PM,66.9,32.7,28,30.01,10.0,SW,17.3,24.2,N/A,,Clear,230,2012-10-10 21:55:00
5:15 PM,66.2,32.0,28,30.01,10.0,SSW,17.3,24.2,N/A,,Clear,210,2012-10-10 22:15:00
5:35 PM,65.5,32.0,29,30.00,10.0,SSW,20.7,26.5,N/A,,Clear,210,2012-10-10 22:35:00
5:55 PM,64.4,32.0,30,30.00,10.0,SSW,16.1,24.2,N/A,,Clear,200,2012-10-10 22:55:00
6:15 PM,62.6,31.3,31,30.00,10.0,South,17.3,23.0,N/A,,Clear,190,2012-10-10 23:15:00
6:35 PM,61.0,31.3,33,30.00,10.0,South,10.4,-,N/A,,Clear,190,2012-10-10 23:35:00
6:55 PM,58.5,31.1,35,29.99,10.0,South,9.2,-,N/A,,Clear,180,2012-10-10 23:55:00
7:15 PM,55.6,31.6,40,29.99,10.0,South,6.9,-,N/A,,Clear,170,2012-10-11 00:15:00
7:35 PM,53.6,31.6,43,30.00,10.0,SSE,6.9,-,N/A,,Clear,160,2012-10-11 00:35:00
7:55 PM,51.4,31.8,47,30.00,10.0,SSE,8.1,-,N/A,,Clear,150,2012-10-11 00:55:00
8:15 PM,51.8,32.0,47,29.99,10.0,SSE,6.9,-,N/A,,Clear,150,2012-10-11 01:15:00
8:35 PM,49.5,31.6,50,30.00,10.0,SSE,6.9,-,N/A,,Clear,150,2012-10-11 01:35:00
8:55 PM,48.2,31.6,53,30.00,10.0,SSE,8.1,-,N/A,,Clear,150,2012-10-11 01:55:00
9:15 PM,46.8,31.6,56,30.00,10.0,SSE,6.9,-,N/A,,Clear,150,2012-10-11 02:15:00
9:35 PM,47.3,32.0,55,29.99,10.0,SSE,8.1,-,N/A,,Clear,150,2012-10-11 02:35:00
9:55 PM,46.6,31.8,56,29.99,10.0,SSE,6.9,-,N/A,,Clear,160,2012-10-11 02:55:00
10:15 PM,48.4,31.8,53,29.99,10.0,SSE,6.9,-,N/A,,Clear,150,2012-10-11 03:15:00
10:35 PM,50.9,32.0,48,29.99,10.0,South,6.9,-,N/A,,Clear,170,2012-10-11 03:35:00
10:55 PM,51.8,32.0,47,29.99,10.0,South,10.4,-,N/A,,Clear,180,2012-10-11 03:55:00
11:15 PM,53.6,32.0,44,29.99,10.0,South,11.5,-,N/A,,Clear,190,2012-10-11 04:15:00
11:35 PM,53.2,31.8,44,29.99,10.0,South,11.5,-,N/A,,Clear,190,2012-10-11 04:35:00
11:55 PM,53.1,31.6,44,29.99,10.0,South,11.5,16.1,N/A,,Clear,190,2012-10-11 04:55:00